Location: Caramacate
(10.0289°N, 66.7587°W)
Time: 21:40:56
(UTC+00:00)

Cosmos 614 Rocket - Pass Details

Date: 05 August 2024
Orbit: 730 x 760 km, 74.1° (Epoch: 07 September)

Event Time Altitude Azimuth Distance (km) Brightness Sun altitude
Rises 23:13:40 0° 355° (N) 3,149 7.5 -6.7°
Reaches altitude 10° 23:16:03 10° 360° (N) 2,231 6.7 -7.3°
Maximum altitude 23:20:58 54° 77° (ENE) 897 4.1 -8.4°
Drops below altitude 10° 23:25:56 10° 154° (SSE) 2,250 6.0 -9.6°
Sets 23:28:21 0° 158° (SSE) 3,179 6.8 -10.1°
Enters shadow 23:28:25 - 158° (SSE) 3,205 6.8 -10.1°
